Showing default

EXPLORER 40 (INJUN-5), 3338

Orbit data source: Space-Track

EXPLORER 40 (INJUN-5), 3338 is a payload satellite owned by NASA LaRC (US) in LEO that was launched on Thu, 08 Aug 1968 UTC via an SCOUT B launch vehicle from the Air Force Western Test Range (AFWTR). Payload-class satellites include a variety of spacecraft equipped with specific instruments for various scientific and technological missions. These include communications satellites like Starlink; space stations such as the ISS; scientific satellites like the Hubble; Earth observation satellites from companies like Planet Labs, Umbra, and HawkEye 360; GPS; miniature CubeSats for education and research; and military/defense satellites.

Loading next visibility...
Identifier
3338, 1968-066B
Orbit
LEO
Last TLE update
19 hours ago
Origin
Manufacturer
Iowa
Mission
Civil Science
Bus & Motor
INJUN E, Unknown motor
Mass
70 kg wet, 70 kg dry
Launch date (UTC)
1968-08-08 (57 years ago)
Launch vehicle
SCOUT B
Launch site
Air Force Western Test Range (AFWTR)
Object type
Payload
Rocket body
Debris
Shape & HBR
Hex Cyl, 0.76 m
Radar Cross Section
0.609 m², Large (>1 m²)

Expand to show TLE details & history

TLE from 19 hours ago
0 EXPLORER 40 (INJUN-5)
1 03338U 68066B   25128.43145377  .00000320  00000-0  32500-3 0  9993
2 03338  80.6652  36.4366 1131181  49.3486 320.0513 12.23427508528816
Epoch: 2025-05-08T10:21Z
Definitive object data (Epoch: 2025-05-08T10:21:17.605Z)
Latitude
-0.00006°
Longitude
14.61119°
Altitude
938.164 km
Speed
7.675 km/s
True Right ascension
02h 25m 44s
True Declination
0° 00' 00"
Sunlit
Object was in daylight at TLE epoch
Visualization TLE readout
Latitude
-43.63635°
Longitude
-157.00975°
Altitude
2,492.229 km
Speed
6.313 km/s
Apparent Right ascension
18h 03m 42s
Apparent Declination
-74° 17' 11"
Sunlit
Object is in full shadow
Visualization observer readout
Local Sidereal Time
13:19:41
Azimuth
162.143° S
Elevation
-33.372°
Doppler factor
1
Orbital elements
Apogee altitude
2,474.704 km
Perigee altitude
675.404 km
Semi-major axis
7,953.191 km
Eccentricity
0.1131181
Inclination
80.6652°
RAAN
36.4366°
Arg. of periapsis
49.3486°
True anomaly
310.76323°
Mean anomaly
320.0513°
Eccentric anomaly
315.50933°
Mean motion
3.06007 °/min
BSTAR
0.000325
Orbital period
117.64 mins
Loading maneuver chart data...
Loading SW <> Apogee altitude chart data...
Loading historical data...
Loading historical data...
Loading historical data...
Loading historical data...
Loading historical data...
Loading historical data...
Loading historical data...

EXPLORER 40 (INJUN-5) Visibility forecast

Observer location: undefined°, undefined°

Span
Click to sort rows by Start time (UTC) header in descending order
Start Az.
Max El. time (UTC)
Max El. Az.
Max El.
End time (UTC)
End Az.
16 mins2025-05-09 06:31:03.729Z332.886° NNW2025-05-09 06:38:03.729Z259.244° W34.859°2025-05-09 06:47:03.729Z200.209° SSW
6 mins2025-05-09 17:53:03.729Z141.487° SSE2025-05-09 17:56:03.729Z84.962° E25.527°2025-05-09 17:59:03.729Z36.996° NE
4 mins2025-05-09 19:53:03.729Z265.635° W2025-05-09 19:55:03.729Z297.212° NW16.089°2025-05-09 19:57:03.729Z326.228° NNW
13 mins2025-05-10 04:07:03.729Z26.598° NE2025-05-10 04:12:03.729Z78.742° E26.248°2025-05-10 04:20:03.729Z129.733° SE
|